Flag for Germany Weather past 2 weeks in Stuhr, Lower Saxony, Germany

52 °F


Feels Like: 48 °F
Forecast: 35 / 48 °F
Wind: 12 mph from East

Location: Bremen Airport

Current Time: Oct 10, 2015 at 5:02:25 PM

Latest Report: Oct 10, 2015 at 4:20 PM

Visibility: 10 mi

Pressure: 30.18 "Hg

Humidity: 54%

Dew point: 36 °F

Location of StuhrLocation

Historic Weather in Stuhr — Graph


Stuhr temperature yesterday

Maximum temperature yesterday: 59 °F (at 11:20 AM)
Minimum temperature yesterday: 52 °F (at 8:50 PM)
Average temperature yesterday: 56 °F

Past Weeks' High & Low Weather Summary

High64 °F (Oct 3, 2:20 PM)100% (Sep 25, 11:20 PM)30.72 "Hg (Sep 25, 11:20 PM)
Low37 °F (Oct 2, 2:50 AM)47% (Oct 10, 2:20 PM)29.65 "Hg (Oct 6, 9:50 AM)
Average54 °F85%30.23 "Hg
* Reported Sep 25 3:20 PM — Oct 10 3:50 PM, Stuhr, Weather by CustomWeather, © 2015

Note: Actual official high and low records may vary slightly from our data, if they occured in-between our weather recording intervals... More about our weather records


Stuhr weather history for previous 24 hours

Time TempWeatherWind HumidityBarometerVisibility
3:50 PM
Sat, Oct 10
54 °FPassing clouds.12 mph54%30.18 "HgN/A
3:20 PM54 °FSunny.10 mph54%30.18 "Hg10 mi
2:50 PM54 °FPassing clouds.12 mph47%30.18 "HgN/A
2:20 PM54 °FPassing clouds.12 mph47%30.21 "HgN/A
1:50 PM52 °FPassing clouds.13 mph54%30.21 "HgN/A
1:20 PM52 °FCool.14 mph54%30.21 "HgN/A
12:50 PM52 °FPassing clouds.14 mph54%30.21 "HgN/A
12:20 PM50 °FSunny.13 mph54%30.24 "Hg10 mi
11:50 AM50 °FSunny.10 mph62%30.24 "Hg10 mi
11:20 AM48 °FPassing clouds.12 mph62%30.24 "HgN/A
10:50 AM46 °FSunny.8 mph71%30.24 "Hg10 mi
10:20 AM46 °FSunny.8 mph71%30.24 "Hg10 mi
9:50 AM45 °FSunny.8 mph81%30.24 "Hg10 mi
9:20 AM43 °FSunny.10 mph87%30.24 "Hg10 mi
8:50 AM43 °FSunny.8 mph87%30.24 "Hg10 mi
8:20 AM41 °FClear.7 mph93%30.24 "Hg10 mi
7:50 AM41 °FClear.5 mph93%30.24 "Hg10 mi
7:20 AM41 °FClear.6 mph93%30.24 "Hg10 mi
6:50 AM41 °FClear.7 mph93%30.24 "Hg10 mi
6:20 AM43 °FClear.7 mph93%30.24 "Hg10 mi
5:50 AM45 °FClear.8 mph87%30.24 "Hg10 mi
5:20 AM45 °FClear.7 mph93%30.24 "Hg10 mi
4:50 AM45 °FClear.6 mph93%30.24 "Hg10 mi
4:20 AM45 °FClear.6 mph93%30.24 "Hg10 mi
3:50 AM45 °FClear.6 mph93%30.24 "Hg10 mi
3:20 AM45 °FClear.7 mph93%30.24 "Hg10 mi
2:50 AM46 °FClear.7 mph87%30.24 "Hg10 mi
2:20 AM46 °FClear.8 mph87%30.24 "Hg10 mi
1:50 AM48 °FPassing clouds.5 mph82%30.24 "HgN/A
1:20 AM50 °FPassing clouds.8 mph82%30.21 "Hg5 mi
12:50 AM52 °FPassing clouds.5 mph88%30.21 "Hg4 mi
12:20 AM52 °FPartly cloudy.6 mph88%30.21 "Hg4 mi
11:20 PM
Fri, Oct 9
52 °FPassing clouds.6 mph88%30.24 "Hg3 mi
10:50 PM52 °FPassing clouds.7 mph88%30.24 "Hg3 mi
10:20 PM52 °FFog.6 mph94%30.24 "Hg3 mi
9:50 PM52 °FFog.7 mph94%30.24 "Hg3 mi
9:20 PM52 °FFog.8 mph94%30.21 "Hg3 mi
8:50 PM52 °FPassing clouds.8 mph94%30.21 "Hg4 mi
8:20 PM54 °FPassing clouds.8 mph88%30.21 "HgN/A
7:50 PM54 °FPassing clouds.8 mph88%30.21 "HgN/A
7:20 PM54 °FPartly sunny.9 mph94%30.21 "HgN/A
6:50 PM55 °FPartly sunny.9 mph88%30.21 "HgN/A
6:20 PM55 °FPartly sunny.8 mph88%30.18 "HgN/A
5:50 PM55 °FBroken clouds.7 mph88%30.18 "HgN/A
5:20 PM57 °FBroken clouds.9 mph88%30.18 "HgN/A
Weather by CustomWeather, © 2015

See weather overviewHow to use our weather pages